Regional Weather Roundup
Issued by NWS

Home | Current Version | Previous Version | Text Only | Print | Product List | Glossary Off
Versions: 1 2 3 4 5 6 7 8 9 10 11 12 13 14 15 16 17 18 19 20 21 22 23 24 25 26 27 28 29 30 31 32 33 34 35 36 37 38 39 40 41 42 43 44 45 46 47 48 49 50

000
ASUS43 KOAX 201502
RWRNE

WEATHER ROUNDUP FOR NEBRASKA
NATIONAL WEATHER SERVICE OMAHA NE
900 AM CST MON FEB 20 2017

NOTES: SATELLITE DATA IS BEING USED TO AUGMENT CLOUD COVER ABOVE
       12000 FEET.
       "FAIR" INDICATES FEW OR NO CLOUDS BELOW 12,000 FEET WITH NO
       SIGNIFICANT WEATHER AND/OR OBSTRUCTIONS TO VISIBILITY.

  * THESE STATIONS DO NOT REPORT WEATHER SUCH AS RAIN...SNOW OR FOG.

NEZ001>004-019>022-054>056-201600-
NEBRASKA PANHANDLE

CITY           SKY/WX    TMP DP  RH WIND       PRES   REMARKS
SCOTTSBLUFF    SUNNY     38  22  52 NW9       29.91R WCI  31
ALLIANCE       SUNNY     40  24  53 W16       29.86R WCI  31
CHADRON        MOSUNNY   40  29  64 W24G32    29.87R WCI  29
KIMBALL        SUNNY     43  26  51 NW18G25   29.92R
SIDNEY         SUNNY     41  22  46 NW18      29.90R
$$

NEZ057>060-069>072-079>082-201600-
SOUTHWEST NEBRASKA

CITY           SKY/WX    TMP DP  RH WIND       PRES   REMARKS
NORTH PLATTE   CLOUDY    49  29  46 NW20G28   29.79R
IMPERIAL       SUNNY     47  19  33 NW24G35   29.84R
LEXINGTON      MOSUNNY   46  39  77 NW10      29.74R
MCCOOK         MOSUNNY   51  30  44 W20G29    29.79R
OGALLALA       SUNNY     46  26  46 NW20      29.86R
$$

NEZ005>010-023>029-035>040-094-201600-
NORTH CENTRAL NEBRASKA

CITY           SKY/WX    TMP DP  RH WIND       PRES   REMARKS
VALENTINE      LGT RAIN  46  38  73 NW21G30   29.73R
AINSWORTH      CLOUDY    47  40  78 NW17G24   29.73R
BROKEN BOW     PTSUNNY   48  40  73 NW9       29.73R
O`NEILL        CLOUDY    53  50  89 SW9       29.67S
ORD            PTSUNNY   52  47  83 W9        29.70R HAZE
THEDFORD       CLOUDY    48  39  71 NW23G31   29.78R
$$

NEZ041-046>049-061>064-073>077-083>087-201600-
SOUTH CENTRAL NEBRASKA

CITY           SKY/WX    TMP DP  RH WIND       PRES   REMARKS
GRAND ISLAND   MOSUNNY   56  55  97 SW14      29.72R
AURORA         CLOUDY    55  55  99 S10G16    29.72R FOG
HASTINGS       CLOUDY    56  53  90 S8        29.74R FOG
HEBRON         CLOUDY    58  56  91 S10       29.75R
HOLDREGE       CLOUDY    49  41  73 W8        29.74S
KEARNEY *      CLOUDY    52  46  82 SW8       29.73F
YORK           CLOUDY    57  57 100 S13       29.74R FOG
$$

NEZ011>018-030>034-042>045-201600-
NORTHEAST NEBRASKA

CITY           SKY/WX    TMP DP  RH WIND       PRES   REMARKS
NORFOLK        CLOUDY    57  54  89 S12       29.68F
ALBION         CLOUDY    56  53  91 S6        29.70S FOG
BLAIR          DRIZZLE   58  56  96 S13       29.74F
FREMONT        CLOUDY    58  57  97 SE12      29.73F FOG
TEKAMAH        CLOUDY    57  55  93 SE12      29.72F FOG
WAYNE          CLOUDY    55  54  99 S8        29.70S FOG
$$

NEZ050>053-065>068-078-088>093-201600-
SOUTHEAST NEBRASKA

CITY           SKY/WX    TMP DP  RH WIND       PRES   REMARKS
LINCOLN        CLOUDY    59  57  93 S14       29.73F
OMAHA EPPLEY   LGT RAIN  58  55  90 S12       29.75F FOG
BEATRICE       CLOUDY    58  57  96 S9        29.75F
FALLS CITY     LGT RAIN  59  56  89 S9        29.78F
NEBRASKA CITY  DRIZZLE   57  57 100 S5        29.77F
PLATTSMOUTH    CLOUDY    58  55  91 SE6       29.77F FOG
$$

NEZ044-045-051>053-067-201600-
OMAHA AREA

CITY           SKY/WX    TMP DP  RH WIND       PRES   REMARKS
OMAHA EPPLEY   LGT RAIN  58  55  90 S12       29.75F FOG
BLAIR          DRIZZLE   58  56  96 S13       29.74F
FREMONT        CLOUDY    58  57  97 SE12      29.73F FOG
MILLARD        DRIZZLE   59  58  95 SE8       29.75F
PLATTSMOUTH    CLOUDY    58  55  91 SE6       29.77F FOG
WAHOO          PTSUNNY   57  56  96 S12       29.73F FOG
$$



USA.gov is the U.S. government's official web portal to all federal, state and local government web resources and services.